This is the latest recevied weather packets stored in our database for station/object KC9GSD. If no packets are shown the sender has not sent any weather packets the latest 10 day(s).
| Time | Temp. | Humidity | Pressure | Rain* | Wind** | Luminosity | Snow |
|---|---|---|---|---|---|---|---|
| 1777860367 | 10.56° C | 72% | 1017.7 hPa | 0 mm | - | 0 W/m² | - |
| 1777860063 | 10.56° C | 69% | 1017.9 hPa | 0 mm | - | 0 W/m² | - |
| 1777859760 | 11.11° C | 69% | 1017.6 hPa | 0 mm | - | 0 W/m² | - |
| 1777859456 | 11.11° C | 70% | 1017.7 hPa | 0 mm | - | 0 W/m² | - |
| 1777859152 | 11.11° C | 68% | 1017.6 hPa | 0 mm | - | 0 W/m² | - |
| 1777858850 | 11.11° C | 66% | 1017.5 hPa | 0 mm | - | 0 W/m² | - |
| 1777858547 | 11.11° C | 67% | 1017.5 hPa | 0 mm | - | 0 W/m² | - |
| 1777858244 | 11.11° C | 67% | 1017.5 hPa | 0 mm | - | 0 W/m² | - |
| 1777857941 | 11.11° C | 67% | 1017.4 hPa | 0 mm | - | 0 W/m² | - |
| 1777857639 | 11.11° C | 66% | 1017.4 hPa | 0 mm | - | 0 W/m² | - |
| 1777857336 | 11.11° C | 66% | 1017.5 hPa | 0 mm | - | 0 W/m² | - |
| 1777857032 | 11.67° C | 64% | 1017.5 hPa | 0 mm | - | 0 W/m² | - |
| 1777856727 | 11.67° C | 65% | 1017.5 hPa | 0 mm | - | 0 W/m² | - |
| 1777856424 | 11.67° C | 66% | 1017.3 hPa | 0 mm | - | 0 W/m² | - |
| 1777856120 | 11.67° C | 66% | 1017.6 hPa | 0 mm | - | 0 W/m² | - |
| 1777855818 | 11.67° C | 67% | 1017.5 hPa | 0 mm | - | 0 W/m² | - |
| 1777855516 | 12.22° C | 65% | 1017.3 hPa | 0 mm | - | 0 W/m² | - |
| 1777855213 | 12.22° C | 67% | 1017.3 hPa | 0 mm | - | 1 W/m² | - |
| 1777854908 | 12.22° C | 69% | 1017.1 hPa | 0 mm | - | 2 W/m² | - |
| 1777854606 | 12.78° C | 67% | 1017.2 hPa | 0 mm | - | 3 W/m² | - |
| 1777854302 | 12.78° C | 67% | 1017.2 hPa | 0 mm | - | 5 W/m² | - |
| 1777854000 | 13.33° C | 67% | 1017.3 hPa | 0 mm | - | 7 W/m² | - |
| 1777853697 | 13.89° C | 63% | 1017.4 hPa | 0 mm | - | 10 W/m² | - |
| 1777853393 | 13.89° C | 59% | 1017.2 hPa | 0 mm | - | 12 W/m² | - |
| 1777853091 | 14.44° C | 59% | 1017.2 hPa | 0 mm | - | 14 W/m² | - |
* Rain latest hour (hover to see other rain measurements)
** Current wind speed in m/s (hover to see current wind gust speed)